Skip Page Navigation
NASA JPL Caltech
NASA Logo - Jet Propulsion Laboratory + View the NASA Portal
+ Near-Earth Object (NEO) Program
Search JPL
JPL Home Earth Solar System Stars & Galaxies Technology
JPL Solar System Dynamics
BODIES ORBITS EPHEMERIDES TOOLS PHYSICAL DATA DISCOVERY FAQ SITE MAP
JPL Small-Body Database Browser
Search: [ help ]  
133527 Fredearly (2003 TZ)
Classification: Main-belt Asteroid          SPK-ID: 2133527
Ephemeris | Orbit Diagram | Orbital Elements | Physical Parameters | Discovery Circumstances | Close-Approach Data ]

[ show orbit diagram ]
Orbital Elements at Epoch 2457000.5 (2014-Dec-09.0) TDB
Reference: JPL 6 (heliocentric ecliptic J2000)
 Element Value Uncertainty (1-sigma)   Units 
e .09713438680237264 1.0058e-07  
a 3.148491924279397 5.076e-08 AU
q 2.842665091862295 3.3783e-07 AU
i 8.872731998069582 1.4515e-05 deg
node 14.08595806963933 4.8448e-05 deg
peri 64.47269934854188 8.9034e-05 deg
M 305.7244477578628 7.3169e-05 deg
tp 2457308.147969211500
(2015-Oct-12.64796921)
0.00041544 JED
period 2040.573782133827
5.59
4.9347e-05
1.351e-07
d
yr
n .1764209670593475 4.2664e-09 deg/d
Q 3.454318756696499 5.569e-08 AU
  Orbit Determination Parameters
   # obs. used (total)      269  
   data-arc span      5845 days (16.00 yr)  
   first obs. used      1998-12-17  
   last obs. used      2014-12-18  
   planetary ephem.      DE431  
   SB-pert. ephem.      SB431-BIG16  
   condition code      0  
   fit RMS      .5708  
   data source      ORB  
   producer      Otto Matic  
   solution date      2015-Jan-08 07:37:47  

Additional Information
 Earth MOID = 1.87151 AU 
 T_jup = 3.183 
[ show covariance matrix ]

Ephemeris | Orbit Diagram | Orbital Elements | Physical Parameters | Discovery Circumstances | Close-Approach Data ]

Physical Parameter Table
Parameter Symbol Value Units Sigma Reference Notes
absolute magnitude H 15.1 mag n/a MPO310089  

133527 Fredearly           Discovered 2003 Oct. 5 by J. W. Young at Table Mountain Observatory.
Pearl (1888-1958) and Frederick (1889-1974) Young were the paternal grandparents of the discoverer.
NOTE: some special characters may not display properly (any characters within {} are an attempt to place the proper accent above a character)
Reference: 20080520/MPCPages.arcLast Updated: 2008-05-22

[ show close-approach data ]
Ephemeris | Orbit Diagram | Orbital Elements | Physical Parameters | Discovery Circumstances | Close-Approach Data ]
ABOUT SSD CREDITS/AWARDS PRIVACY/COPYRIGHT GLOSSARY LINKS
FirstGov 2015-Jul-05 02:41 UT
(server date/time)  
NASA Home Page
Site Manager:   Ryan S. Park
Webmaster  Alan B. Chamberlin